TimeGMT,TemperatureF,Dew PointF,Humidity,Sea Level PressureIn,VisibilityMPH,Wind Direction,Wind SpeedMPH,Gust SpeedMPH,PrecipitationIn,Events,Conditions,WindDirDegrees,DateUTC
12:20 AM,39.2,37.4,93,29.95,-9999.0,Calm,Calm,-,N/A,,Clear,0,2013-01-02 00:20:00
12:50 AM,42.8,39.2,87,29.95,-9999.0,West,8.1,-,N/A,,Clear,260,2013-01-02 00:50:00
1:20 AM,41.0,39.2,93,29.95,-9999.0,WSW,8.1,-,N/A,,Clear,250,2013-01-02 01:20:00
1:50 AM,41.0,39.2,93,29.95,6.2,WSW,8.1,-,N/A,,Scattered Clouds,250,2013-01-02 01:50:00
2:20 AM,41.0,39.2,93,29.98,6.2,WSW,8.1,-,N/A,,Mostly Cloudy,240,2013-01-02 02:20:00
2:50 AM,41.0,37.4,87,29.98,6.2,West,3.5,-,N/A,,Partly Cloudy,280,2013-01-02 02:50:00
3:20 AM,41.0,37.4,87,29.98,-9999.0,Variable,2.3,-,N/A,,Clear,0,2013-01-02 03:20:00
3:50 AM,41.0,39.2,93,29.98,6.2,Variable,3.5,-,N/A,Rain,Light Rain,0,2013-01-02 03:50:00
4:20 AM,41.0,39.2,93,29.98,6.2,East,2.3,-,N/A,Rain,Light Rain,80,2013-01-02 04:20:00
4:50 AM,41.0,39.2,93,29.98,6.2,Calm,Calm,-,N/A,Rain,Light Rain,0,2013-01-02 04:50:00
5:20 AM,42.8,41.0,93,29.95,6.2,SSW,5.8,-,N/A,Rain,Light Rain,200,2013-01-02 05:20:00
5:50 AM,44.6,42.8,93,29.95,6.2,SSW,10.4,-,N/A,Rain,Light Rain,210,2013-01-02 05:50:00
6:20 AM,44.6,41.0,87,29.95,5.0,SW,8.1,-,N/A,Rain,Light Rain,220,2013-01-02 06:20:00
6:50 AM,44.6,41.0,87,29.95,4.3,SSW,9.2,-,N/A,Rain,Light Rain,200,2013-01-02 06:50:00
7:20 AM,44.6,41.0,87,29.95,3.1,South,5.8,-,N/A,Rain,Light Rain,180,2013-01-02 07:20:00
7:50 AM,42.8,41.0,93,29.95,3.1,South,5.8,-,N/A,Rain,Light Rain,180,2013-01-02 07:50:00
8:20 AM,42.8,41.0,93,29.95,2.8,Variable,3.5,-,N/A,Rain,Rain,0,2013-01-02 08:20:00
8:50 AM,44.6,42.8,93,29.95,3.7,SSW,5.8,-,N/A,Rain,Light Rain,210,2013-01-02 08:50:00
9:20 AM,44.6,42.8,93,29.95,3.7,West,4.6,-,N/A,,Light Drizzle,270,2013-01-02 09:20:00
9:50 AM,46.4,44.6,93,29.95,5.6,SW,13.8,-,N/A,,Light Drizzle,230,2013-01-02 09:50:00
10:20 AM,46.4,44.6,93,29.95,6.2,SW,15.0,-,N/A,,Mostly Cloudy,230,2013-01-02 10:20:00
10:50 AM,48.2,46.4,93,29.95,6.2,SW,16.1,-,N/A,Rain,Light Rain,230,2013-01-02 10:50:00
11:20 AM,48.2,46.4,93,29.95,6.2,SW,15.0,-,N/A,Rain,Light Rain,230,2013-01-02 11:20:00
11:50 AM,48.2,46.4,93,29.95,6.2,SW,9.2,-,N/A,,Mostly Cloudy,230,2013-01-02 11:50:00
12:20 PM,50.0,48.2,94,29.95,6.2,SW,9.2,-,N/A,Rain,Light Rain,220,2013-01-02 12:20:00
12:50 PM,50.0,48.2,94,29.95,6.2,SW,8.1,-,N/A,,Mostly Cloudy,230,2013-01-02 12:50:00
1:20 PM,51.8,50.0,94,29.95,6.2,WSW,15.0,-,N/A,,Mostly Cloudy,250,2013-01-02 13:20:00
1:50 PM,51.8,50.0,94,29.95,5.0,WSW,19.6,-,N/A,,Mostly Cloudy,250,2013-01-02 13:50:00
2:20 PM,51.8,50.0,94,29.95,5.6,West,20.7,-,N/A,Rain,Light Rain,260,2013-01-02 14:20:00
2:50 PM,51.8,48.2,88,29.95,6.2,West,21.9,-,N/A,,Mostly Cloudy,260,2013-01-02 14:50:00
3:20 PM,51.8,48.2,88,29.95,6.2,WSW,21.9,-,N/A,,Overcast,250,2013-01-02 15:20:00
3:50 PM,50.0,50.0,100,29.98,5.0,WSW,20.7,-,N/A,,Overcast,250,2013-01-02 15:50:00
4:20 PM,51.8,50.0,94,29.95,5.0,WSW,21.9,-,N/A,,Mostly Cloudy,250,2013-01-02 16:20:00
4:50 PM,51.8,50.0,94,29.98,6.2,WSW,23.0,-,N/A,,Overcast,250,2013-01-02 16:50:00
5:20 PM,51.8,50.0,94,29.98,3.7,WSW,21.9,-,N/A,Rain,Light Rain,250,2013-01-02 17:20:00
5:50 PM,51.8,50.0,94,29.98,5.6,WSW,24.2,-,N/A,Rain,Light Rain,250,2013-01-02 17:50:00
6:20 PM,51.8,50.0,94,30.01,3.7,SW,19.6,-,N/A,Rain,Light Rain,230,2013-01-02 18:20:00
6:50 PM,51.8,50.0,94,30.01,6.2,WSW,18.4,-,N/A,,Overcast,240,2013-01-02 18:50:00
7:20 PM,51.8,50.0,94,30.01,4.3,WSW,18.4,-,N/A,Rain,Light Rain,250,2013-01-02 19:20:00
7:50 PM,51.8,50.0,94,30.01,4.3,WSW,17.3,-,N/A,Rain,Light Rain,250,2013-01-02 19:50:00
8:20 PM,51.8,50.0,94,30.04,4.3,WSW,16.1,-,N/A,Rain,Light Rain,250,2013-01-02 20:20:00
8:50 PM,51.8,50.0,94,30.04,3.7,WSW,13.8,-,N/A,Rain,Light Rain,240,2013-01-02 20:50:00
9:20 PM,51.8,50.0,94,30.04,5.6,WSW,12.7,-,N/A,Rain,Light Rain,240,2013-01-02 21:20:00
9:50 PM,51.8,50.0,94,30.06,3.7,WSW,12.7,-,N/A,Rain,Light Rain,240,2013-01-02 21:50:00
10:20 PM,51.8,50.0,94,30.06,3.1,WSW,10.4,-,N/A,Rain,Light Rain,240,2013-01-02 22:20:00
10:50 PM,51.8,50.0,94,30.06,3.1,SW,11.5,-,N/A,Rain,Light Rain,230,2013-01-02 22:50:00
11:20 PM,51.8,50.0,94,30.09,6.2,SW,13.8,-,N/A,,Overcast,230,2013-01-02 23:20:00
11:50 PM,51.8,50.0,94,30.09,6.2,SW,15.0,-,N/A,,Light Drizzle,230,2013-01-02 23:50:00